Location: Ariel
(45.9570°N, 122.5700°W)
Time: 15:27:48
(UTC-08:00)

Transit 4A - Pass Details

Date: 06 November 2020
Orbit: 862 x 982 km, 66.8° (Epoch: 03 December)

Event Time Altitude Azimuth Distance (km) Brightness Sun altitude
Rises 17:22:56 0° 307° (NW) 3,681 11.6 -6.5°
Reaches altitude 10° 17:28:09 10° 342° (NNW) 2,744 10.4 -7.3°
Maximum altitude 17:29:45 11° 357° (N) 2,679 10.2 -7.6°
Drops below altitude 10° 17:31:21 10° 12° (NNE) 2,745 10.1 -7.9°
Enters shadow 17:35:09 - 40° (NE) 3,350 10.3 -8.5°
